sat.trackr.live / text

‹ back to catalog

ONEWEB-0502

NORAD 54120 · 2022-138H

PAYLOAD ACTIVE UNKNOWN

§ Identity

Operator
Country
UK
Launch date
2022-10-22
Launch site
SRILR
Launch vehicle
Mass (kg)
RCS (m²)

Purposes: comms

External: N2YO · Heavens-Above · Gunter

§ Orbital elements

Epoch: 2026-05-25T04:18:25.464096Z

Period
109.11 min
Inclination
87.9158°
Eccentricity
0.0001801
Mean motion
13.19726480 rev/d
Perigee alt
1,184.4 km
Apogee alt
1,187.1 km
Semi-major
7,563.9 km
B*
2.3961e-4
RAAN
309.5398°
Arg perigee
85.0873°
Mean anomaly
275.0466°
Rev number
17,379

§ Raw data

ONEWEB-05021 54120U 22138H   26145.17946139  .00000109  00000+0  23961-3 0  99992 54120  87.9158 309.5398 0001801  85.0873 275.0466 13.19726480173798

JSON: /api/v1/satellites/54120 · /tle

For live sub-satellite position, see the globe view (requires WebGL).

§ Visibility from observer

Set your observer location to see the next 7 days of passes ≥ 10°. The values pass through the URL so the page stays shareable.

No JS? Fill the form by hand. The geolocation button needs JavaScript.